Zurück zum Katalog

STARLINK-36862

AktivKommunikationVLEO
NORAD 68003·PAYLOAD·🇺🇸 United States

Gestartet Feb 27, 2026 von Vandenberg Space Force Base

Loading…

Nächste Überflüge (nächste 24 Stunden)

TLE

AktuellSource: CelesTrak SupGP

Epoche: Sep 14, 2026, 20:55 UTC

1 68003C 26039T   26257.87201389  .00035160  00000+0  12736-2 0  2579
2 68003  43.0007  60.7310 0001498 271.6793 104.5491 15.27559199    15

Verfolge STARLINK-36862 in Echtzeit mit AllMySat

Download on the App Store